Wind_Speed
11 11 11 11 12 13 13 13 14 13 13 13 13 15 15 15 15 15 15 15 16 16 17 17 17 18 19 19 19 19 20 21 21 22 22 22 23 23 23 22 22 22 24
10 10 11 11 11 12 12 13 13 13 14 13 13 14 14 15 14 13 13 13 13 14 15 16 17 17 17 17 17 18 20 21 21 22 22 23 23 23 23 23 22 22 23
10 10 11 12 12 12 13 12 12 13 12 12 12 12 13 13 13 12 12 13 13 13 14 15 15 15 16 16 16 18 19 20 21 21 21 22 22 22 22 23 23 23 23
10 10 11 12 12 12 12 11 11 12 12 11 11 12 12 12 12 11 12 13 13 13 13 14 14 14 15 15 15 16 18 18 19 19 20 21 22 22 22 22 22 23 23
10 10 11 12 12 11 11 11 11 11 11 11 12 12 12 12 11 11 11 12 13 13 13 13 14 15 15 15 16 17 17 18 18 19 20 21 21 22 22 22 22 23 23
10 10 10 11 11 10 11 11 10 11 11 11 12 13 13 12 12 11 11 12 13 13 13 13 14 15 15 15 17 17 17 18 19 20 21 21 21 21 22 22 23 24 24
11 10 10 11 10 10 10 10 11 11 11 12 13 12 12 12 12 12 12 12 12 13 14 14 15 15 16 16 17 17 18 19 20 21 21 21 22 22 22 23 23 24 24
11 11 11 11 11 11 11 10 10 11 11 11 12 12 12 12 12 12 12 12 12 13 14 15 15 15 16 16 16 17 18 19 19 19 20 21 21 21 22 23 23 23 23
11 11 11 11 11 11 11 10 11 11 11 11 11 12 12 12 13 13 13 13 14 14 15 15 16 16 16 16 17 17 19 20 20 20 20 20 20 21 21 23 23 23 24
11 11 12 11 11 11 11 11 11 11 11 11 12 13 13 13 13 14 15 15 16 17 17 16 17 17 17 18 18 19 20 21 21 20 20 20 21 21 23 23 24 24 25
12 12 12 12 12 11 11 11 11 11 11 12 13 13 13 13 14 15 15 15 17 17 17 16 17 18 18 19 20 20 21 21 21 20 20 21 22 22 23 23 24 24 24
14 13 13 13 13 12 12 12 12 12 12 13 13 14 15 15 15 16 16 16 17 16 16 16 17 17 18 19 20 21 20 20 20 20 21 22 23 23 24 23 24 24 24
15 15 15 15 15 14 13 13 13 12 13 14 15 16 16 17 17 17 17 17 17 17 17 17 17 18 18 19 20 20 20 20 21 21 22 22 23 23 24 24 25 25 25
15 15 15 16 15 14 14 14 14 14 15 15 16 17 18 18 18 18 18 18 18 18 18 18 18 19 19 19 20 21 21 21 21 21 22 22 22 23 23 24 24 24 25
15 16 16 16 16 16 15 15 15 15 16 17 17 18 19 18 19 19 19 19 19 18 18 19 19 19 20 21 21 21 21 21 22 22 22 23 23 23 23 23 23 23 23
17 17 17 17 18 18 18 17 17 17 17 18 18 19 19 19 19 19 19 19 18 18 19 19 20 20 21 21 21 22 22 22 22 22 23 23 23 22 22 22 22 23 23
17 18 18 18 19 20 20 19 19 18 18 18 18 19 19 19 19 18 18 18 18 19 20 20 21 21 21 21 22 21 22 22 22 22 22 22 22 22 22 22 22 22 22
17 17 17 17 18 19 19 18 18 18 19 19 19 20 19 18 17 17 17 18 19 19 20 20 20 20 20 20 20 21 21 22 22 22 22 22 22 21 22 22 21 21 20
16 16 17 17 17 16 16 16 17 19 19 20 20 19 19 19 18 17 18 18 19 20 20 20 20 20 20 20 20 21 21 21 21 21 21 21 21 21 21 20 20 19 19
17 17 17 17 17 17 17 17 18 20 20 19 19 19 19 19 19 19 20 19 20 20 20 20 20 20 21 20 20 21 21 21 21 21 20 20 20 20 20 20 19 18 18
18 18 18 18 17 18 18 17 18 18 18 18 19 19 19 19 19 20 20 20 20 19 20 19 20 20 21 20 20 21 21 21 20 20 19 19 19 20 20 20 19 18 17
17 17 18 18 18 18 18 18 17 17 17 18 18 18 19 19 19 19 19 20 19 20 20 20 21 21 21 21 21 21 21 20 20 20 20 20 20 20 20 19 18 18 17
17 18 17 17 18 18 17 18 18 18 18 18 17 17 18 18 19 19 20 20 20 20 21 21 21 21 22 21 21 21 21 21 21 20 20 20 20 20 19 18 17 17 17
18 18 18 17 18 18 19 19 19 18 17 17 18 18 19 20 20 20 20 20 20 20 21 22 21 22 21 21 20 21 21 21 20 21 21 20 20 19 18 17 17 17 17
18 19 19 19 19 19 19 19 19 19 19 19 20 21 21 21 20 21 21 20 21 21 22 22 22 22 22 21 21 21 21 20 20 20 20 19 19 18 18 18 17 17 16
20 20 20 19 19 19 20 20 20 20 19 20 20 21 22 21 21 21 21 22 22 22 22 22 22 22 21 21 21 21 20 20 19 19 20 20 19 18 18 18 17 17 16
Wind_Direction
310 311 310 311 310 307 305 302 302 304 304 304 302 297 294 292 286 283 285 286 283 282 283 283 280 277 278 278 275 273 275 276 277 278 276 275 274 273 272 271 268 265 263
306 309 311 310 312 310 309 306 305 306 306 306 308 303 299 299 293 286 289 290 289 291 290 289 283 280 281 283 279 275 276 276 278 280 276 273 272 273 274 273 270 268 267
307 306 309 307 308 306 307 308 308 310 312 309 313 315 313 309 302 294 291 292 294 296 297 293 288 286 285 285 283 278 278 278 281 281 277 275 274 275 274 273 272 270 270
311 309 309 308 308 310 308 307 312 316 317 314 316 319 316 311 307 303 296 295 299 298 298 298 295 293 292 289 286 283 282 281 282 281 280 279 278 278 277 275 272 271 270
310 311 312 312 312 310 310 309 313 319 324 321 317 318 316 316 317 314 305 299 300 301 300 302 299 296 295 292 289 289 284 284 285 284 283 283 281 280 277 276 275 274 272
306 307 311 316 314 312 313 312 314 321 325 324 318 314 314 317 318 314 308 304 306 304 303 302 301 300 296 293 292 289 289 289 288 286 285 284 282 281 279 276 274 275 274
306 307 310 316 317 319 318 317 319 321 322 323 324 320 318 320 319 318 314 310 309 306 305 304 304 302 298 293 292 291 290 290 290 287 287 286 284 283 281 281 279 277 276
307 310 312 311 311 313 319 323 323 325 324 326 327 327 325 320 319 318 315 311 310 310 308 306 304 301 298 295 294 296 296 296 296 294 292 289 287 286 286 283 281 279 278
305 305 308 307 309 309 315 320 324 325 329 333 335 332 328 324 320 316 314 311 309 308 306 306 302 298 296 295 296 298 299 299 297 296 296 293 290 289 288 286 284 281 280
305 306 307 305 305 308 313 315 318 321 324 328 328 330 327 324 322 318 315 312 310 308 306 302 300 298 296 296 298 301 300 300 298 297 296 294 291 290 289 288 286 284 283
299 301 304 304 300 301 304 306 311 313 316 320 322 324 324 324 323 323 319 316 314 311 308 305 303 301 300 300 301 302 302 300 299 298 297 296 293 290 290 288 287 287 286
293 296 297 297 298 298 301 302 304 306 309 314 318 321 323 323 322 322 320 317 316 314 310 307 307 306 304 304 305 304 304 303 302 301 301 301 299 294 290 288 287 286 284
295 297 295 293 295 297 299 302 305 304 309 315 318 319 320 320 320 319 318 317 315 313 310 310 310 309 307 307 308 307 305 304 305 305 304 303 302 298 294 291 289 287 285
295 294 294 295 296 296 299 301 304 305 308 311 313 314 315 315 316 315 314 315 314 311 310 312 313 312 311 310 309 310 309 307 307 306 305 303 302 300 298 295 292 290 289
293 292 291 292 292 292 293 295 297 299 302 305 309 310 311 310 310 310 311 311 311 310 311 312 312 312 310 309 310 310 309 308 307 307 305 303 303 303 302 299 295 293 292
287 289 289 288 289 289 287 286 290 294 297 301 305 307 308 309 309 308 308 309 310 313 314 313 312 311 311 311 311 309 309 308 308 308 307 305 304 304 303 304 300 295 294
284 287 288 287 289 288 286 283 284 289 294 298 301 304 306 308 309 308 309 309 311 313 314 313 313 311 311 311 310 310 311 310 309 309 309 308 306 305 305 305 304 301 295
284 287 289 291 292 290 288 283 285 289 292 295 298 302 303 307 308 308 310 310 309 310 311 313 312 311 311 312 312 313 314 313 312 311 310 310 309 309 308 307 306 305 301
283 286 288 290 293 292 290 287 286 290 291 293 295 301 304 307 306 307 309 310 310 310 311 310 311 313 313 313 314 313 313 313 314 314 313 312 312 314 314 311 310 309 306
280 282 284 285 287 289 290 287 287 289 291 293 296 300 303 306 307 310 312 311 312 312 311 312 313 314 315 314 314 314 314 315 316 315 315 314 315 317 317 316 314 310 308
279 282 283 284 286 287 288 288 287 286 290 293 295 298 302 306 308 309 311 311 311 312 313 315 316 316 317 317 315 314 315 316 317 316 316 316 316 316 316 316 314 311 309
285 285 286 286 285 286 287 286 288 291 292 294 296 297 299 303 305 305 308 311 310 310 311 313 315 315 315 315 314 314 316 317 317 316 315 315 315 315 316 315 314 311 309
285 286 287 285 286 285 286 286 288 290 291 293 296 298 301 302 304 305 307 308 308 308 309 311 313 314 314 314 313 314 315 316 316 316 315 314 315 316 314 313 313 312 312
284 285 285 286 284 283 285 287 289 292 294 296 298 299 301 303 305 307 308 307 307 307 309 312 312 313 313 312 312 313 313 313 314 314 314 313 314 316 314 312 312 312 310
284 284 284 285 284 283 282 284 288 291 292 294 297 300 302 303 306 307 306 307 308 308 309 310 311 312 312 312 310 312 314 315 316 316 316 315 315 314 312 312 313 314 313
285 286 286 287 286 284 283 282 285 287 289 293 296 299 301 302 302 303 303 305 307 307 309 309 311 312 312 313 313 312 313 314 316 316 316 316 314 313 312 312 312 312 314
Height
5830 5829 5828 5827 5825 5824 5823 5822 5820 5818 5816 5814 5813 5811 5810 5808 5806 5805 5803 5802 5800 5798 5797 5796 5796 5795 5794 5794 5793 5795 5795 5794 5793 5793 5792 5792 5791 5791 5791 5791 5791 5791 5791
5828 5827 5826 5824 5823 5821 5820 5818 5817 5815 5813 5811 5810 5808 5806 5805 5803 5801 5800 5798 5796 5794 5793 5792 5791 5791 5790 5790 5789 5790 5790 5789 5788 5788 5787 5787 5787 5786 5786 5785 5785 5785 5785
5826 5825 5824 5822 5821 5819 5818 5816 5814 5812 5810 5808 5807 5805 5803 5801 5800 5798 5797 5795 5794 5792 5790 5789 5788 5787 5787 5786 5785 5785 5785 5784 5783 5782 5782 5781 5781 5780 5780 5780 5779 5779 5779
5824 5823 5822 5820 5819 5817 5815 5813 5812 5810 5808 5806 5804 5802 5800 5799 5797 5795 5794 5793 5791 5790 5788 5786 5785 5784 5783 5782 5782 5781 5780 5779 5779 5778 5776 5776 5775 5775 5774 5774 5774 5774 5774
5822 5820 5819 5818 5816 5815 5813 5811 5809 5808 5806 5804 5802 5800 5798 5796 5794 5793 5791 5790 5789 5787 5785 5784 5783 5781 5780 5779 5778 5777 5776 5775 5774 5773 5772 5771 5770 5769 5768 5768 5768 5768 5767
5819 5818 5817 5815 5814 5812 5811 5809 5807 5805 5803 5801 5799 5797 5795 5793 5792 5790 5789 5787 5786 5784 5782 5781 5780 5779 5777 5776 5775 5773 5772 5770 5769 5768 5767 5766 5765 5764 5763 5762 5762 5762 5761
5818 5816 5815 5813 5811 5810 5808 5807 5805 5803 5801 5799 5797 5795 5793 5791 5789 5787 5786 5785 5783 5781 5780 5778 5777 5775 5774 5772 5771 5770 5768 5767 5765 5763 5762 5761 5759 5758 5757 5756 5756 5755 5755
5816 5814 5813 5811 5809 5808 5806 5804 5803 5801 5799 5797 5795 5793 5791 5789 5787 5785 5783 5782 5780 5779 5777 5775 5774 5772 5770 5769 5768 5766 5764 5763 5761 5759 5757 5755 5754 5752 5751 5750 5749 5749 5748
5814 5812 5810 5809 5807 5806 5804 5802 5800 5798 5797 5795 5793 5791 5789 5787 5785 5783 5781 5779 5777 5775 5774 5772 5770 5769 5767 5766 5764 5762 5760 5758 5756 5754 5752 5750 5748 5747 5745 5744 5743 5743 5742
5811 5809 5808 5806 5805 5803 5801 5800 5798 5796 5794 5793 5791 5789 5787 5784 5782 5780 5777 5775 5773 5772 5770 5768 5766 5765 5763 5762 5760 5757 5755 5753 5751 5749 5747 5745 5743 5741 5739 5738 5736 5735 5734
5808 5807 5805 5803 5802 5801 5799 5797 5795 5794 5792 5791 5788 5786 5784 5782 5779 5777 5775 5772 5770 5767 5765 5764 5762 5761 5759 5757 5755 5753 5750 5748 5746 5743 5741 5739 5737 5735 5733 5731 5729 5728 5726
5804 5803 5802 5800 5799 5797 5796 5794 5792 5791 5790 5788 5785 5783 5781 5779 5777 5774 5771 5769 5766 5763 5761 5760 5758 5757 5755 5753 5750 5748 5746 5743 5741 5738 5736 5733 5731 5728 5726 5724 5722 5720 5719
5800 5799 5798 5797 5795 5794 5793 5791 5789 5788 5786 5784 5782 5780 5778 5776 5773 5771 5768 5765 5762 5760 5758 5756 5754 5752 5750 5748 5746 5743 5741 5738 5736 5733 5730 5728 5725 5722 5719 5717 5715 5713 5712
5796 5795 5794 5793 5791 5790 5789 5787 5786 5784 5783 5781 5779 5777 5775 5772 5770 5767 5764 5762 5759 5756 5754 5752 5750 5748 5746 5743 5741 5738 5735 5733 5730 5727 5725 5722 5719 5716 5713 5710 5708 5706 5704
5792 5791 5790 5789 5787 5786 5785 5783 5782 5781 5779 5777 5775 5773 5771 5768 5766 5763 5760 5758 5755 5753 5751 5748 5746 5744 5741 5738 5736 5733 5730 5728 5725 5722 5719 5716 5713 5710 5707 5704 5702 5700 5698
5788 5787 5785 5784 5783 5782 5780 5779 5778 5777 5775 5773 5771 5769 5766 5764 5761 5759 5756 5753 5751 5749 5746 5744 5741 5739 5736 5733 5731 5728 5725 5722 5719 5716 5713 5710 5707 5704 5701 5699 5696 5693 5691
5783 5782 5781 5780 5778 5777 5775 5774 5773 5772 5770 5768 5766 5764 5762 5759 5757 5754 5752 5749 5747 5744 5742 5739 5736 5734 5731 5728 5725 5722 5719 5716 5713 5711 5707 5704 5701 5699 5696 5693 5690 5688 5685
5778 5777 5776 5775 5773 5772 5770 5769 5768 5767 5765 5764 5761 5759 5757 5755 5752 5750 5747 5745 5742 5740 5737 5734 5732 5729 5726 5723 5720 5717 5714 5711 5708 5705 5702 5699 5696 5693 5690 5687 5685 5682 5680
5773 5772 5771 5770 5769 5767 5766 5764 5763 5762 5761 5759 5757 5755 5753 5750 5748 5746 5743 5740 5738 5735 5732 5730 5727 5724 5721 5718 5715 5712 5709 5706 5703 5700 5697 5694 5691 5688 5685 5682 5679 5677 5675
5768 5767 5766 5765 5764 5763 5761 5760 5759 5757 5756 5754 5752 5750 5748 5746 5744 5741 5738 5736 5733 5730 5727 5725 5722 5719 5716 5713 5710 5707 5704 5702 5698 5695 5692 5689 5686 5683 5680 5677 5675 5673 5670
5762 5762 5761 5760 5759 5758 5757 5755 5754 5752 5751 5749 5747 5746 5744 5741 5739 5736 5734 5731 5728 5725 5723 5720 5717 5714 5711 5708 5705 5703 5700 5697 5694 5691 5688 5685 5682 5679 5676 5673 5670 5668 5666
5757 5756 5755 5755 5754 5753 5751 5750 5749 5747 5745 5744 5742 5741 5739 5737 5734 5732 5729 5726 5724 5721 5718 5716 5713 5710 5707 5704 5701 5698 5695 5692 5689 5686 5683 5680 5677 5674 5671 5669 5666 5664 5662
5752 5751 5750 5749 5748 5747 5746 5745 5744 5743 5741 5740 5738 5736 5734 5732 5730 5727 5725 5722 5719 5716 5714 5711 5708 5705 5702 5699 5696 5693 5690 5687 5684 5682 5679 5676 5673 5670 5667 5664 5662 5660 5658
5747 5746 5745 5744 5743 5742 5741 5740 5739 5738 5737 5735 5734 5732 5730 5727 5725 5722 5719 5717 5714 5712 5709 5706 5703 5700 5697 5694 5691 5688 5686 5683 5680 5677 5674 5671 5668 5665 5662 5660 5658 5656 5653
5742 5741 5740 5739 5738 5737 5736 5735 5734 5733 5732 5730 5729 5727 5725 5722 5720 5717 5715 5712 5709 5706 5704 5701 5698 5695 5692 5689 5686 5683 5680 5678 5675 5672 5669 5666 5663 5661 5658 5656 5653 5651 5649
5736 5735 5734 5733 5732 5731 5730 5730 5729 5728 5726 5725 5723 5721 5719 5717 5715 5712 5710 5707 5704 5701 5698 5695 5693 5690 5688 5685 5682 5679 5676 5673 5670 5667 5664 5661 5659 5656 5654 5651 5649 5647 5645